Location: Badendorf
(46.8500°N, 15.6000°E)
Time: 10:14:26
(UTC+00:00)

Daily predictions for brighter satellites

Satellite Brightness Start Highest point End
(mag) Time Altitude Azimuth Time Altitude Azimuth Time Altitude Azimuth
Cosmos 1553 Rocket 3.9 17:40:59 10° S 17:47:00 72° E 17:53:04 10° NNE
STARLINK-1108 3.8 17:45:03 10° WNW 17:49:01 59° NNE 17:53:00 10° ESE
STARLINK-1201 3.2 17:47:11 10° SW 17:50:21 51° SE 17:53:32 10° ENE
Meteor 1-24 Rocket 3.9 17:45:52 10° N 17:51:17 50° ENE 17:56:30 10° SSE
STARLINK-1138 4.2 17:48:00 10° SSW 17:51:45 37° SE 17:55:31 10° ENE
Meteor 1-15 Rocket 4.3 17:46:33 10° S 17:52:17 88° W 17:57:57 10° N
STARLINK-1071 3.8 17:49:33 10° WNW 17:53:33 62° NNE 17:57:33 10° ESE
ARGOS 3.7 17:48:43 10° SE 17:53:42 40° ENE 17:58:42 10° N
STARLINK-1124 3.8 17:50:02 10° WNW 17:54:10 64° NNE 17:58:16 10° ESE
SL-8 R/B 3.8 17:49:40 10° W 17:54:27 80° N 17:59:15 10° ENE
SeaSat 1 3.4 17:50:12 10° NNE 17:55:01 53° NW 17:59:48 10° SW
STARLINK-1143 4.1 17:52:41 10° SSW 17:56:30 40° SE 18:00:19 10° ENE
STARLINK-1066 2.9 17:53:36 10° WNW 17:56:47 82° NNE 17:59:56 10° ESE
STARLINK-1209 2.6 17:54:10 10° SW 17:57:05 79° SSE 17:59:58 10° ENE
STARLINK-1081 2.8 17:54:05 10° WNW 17:57:13 83° NNE 18:00:20 10° ESE
STARLINK-1070 2.8 17:54:32 10° WNW 17:57:40 84° NNE 18:00:46 10° ESE
STARLINK-1228 2.6 17:55:02 10° SW 17:57:54 81° SSE 18:00:47 10° ENE
STARLINK-1110 3.7 17:54:03 10° WNW 17:58:04 65° NNE 18:02:05 10° ESE
STARLINK-1069 2.9 17:54:56 10° WNW 17:58:06 84° NNE 18:01:14 10° ESE
STARLINK-1085 2.9 17:55:23 10° WNW 17:58:33 85° NNE 18:01:42 10° ESE
CZ-4 R/B 3.3 17:55:01 10° SSW 17:58:34 33° W 18:02:06 10° NNW
STARLINK-1086 2.8 17:55:53 10° WNW 17:59:01 85° NNE 18:02:08 10° ESE
STARLINK-1095 2.8 17:56:20 10° WNW 17:59:28 86° NE 18:02:35 10° ESE
STARLINK-1077 2.8 17:56:46 10° WNW 17:59:54 87° NNE 18:03:01 10° ESE
STARLINK-1075 2.8 17:57:14 10° WNW 18:00:22 87° NNE 18:03:29 10° ESE
STARLINK-1093 2.9 17:57:38 10° WNW 18:00:48 88° NNE 18:03:58 10° ESE
STARLINK-1074 2.9 17:58:05 10° WNW 18:01:15 89° NNE 18:04:24 10° ESE
STARLINK-1087 2.8 17:58:34 10° WNW 18:01:42 89° NNE 18:04:49 10° ESE
STARLINK-1088 2.8 17:59:02 10° WNW 18:02:10 90° E 18:05:16 10° ESE
STARLINK-1115 2.9 17:59:27 10° WNW 18:02:37 89° S 18:05:45 10° ESE
STARLINK-1076 2.9 17:59:53 10° WNW 18:03:03 89° SW 18:06:10 10° ESE
STARLINK-1092 2.9 18:00:21 10° WNW 18:03:31 88° SSW 18:06:37 10° ESE
STARLINK-1080 2.8 18:00:50 10° WNW 18:03:58 88° SSW 18:07:00 11° ESE
STARLINK-1090 2.9 18:01:16 10° WNW 18:04:24 87° SW 18:07:26 11° ESE
Cosmos 1271 Rocket 4.4 18:01:06 10° NNW 18:04:36 37° W 18:08:04 10° SSW
STARLINK-1089 2.8 18:01:44 10° WNW 18:04:53 86° SSW 18:07:52 11° ESE
STARLINK-1107 2.8 18:02:11 10° WNW 18:05:19 86° SSW 18:08:18 11° ESE
Cosmos 1470 4.0 18:02:49 10° SE 18:05:49 22° E 18:08:50 10° NE
NOSS 2-1 (C) 4.0 18:03:12 10° WSW 18:06:29 49° NW 18:10:08 10° NNE
STARLINK-1241 3.8 18:03:10 10° SW 18:07:02 48° SE 18:10:55 10° ENE
STARLINK-1122 3.6 18:03:11 10° WNW 18:07:14 73° NNE 18:10:59 12° ESE
SL-08 RB Rocket 4.4 18:04:05 10° SE 18:08:10 34° ENE 18:12:17 10° N
ATLAS CENTAUR R/B 4.2 18:06:17 10° WNW 18:08:28 13° NNW 18:10:36 10° N
STARLINK-1233 2.8 18:07:23 10° SW 18:10:30 78° SSE 18:13:40 10° ENE
IRS-1A Rocket 4.3 18:04:59 10° SSE 18:10:35 73° ENE 18:16:22 10° NNW
NOSS 2-1 (D) 4.2 18:07:26 10° WSW 18:10:42 44° NW 18:14:19 10° NNE
STARLINK-1212 2.8 18:07:51 10° SW 18:10:57 79° SSE 18:14:05 10° ENE
COSMOS 2428 4.4 18:05:41 10° WSW 18:10:59 38° NW 18:16:20 10° NNE
STARLINK-1105 2.8 18:08:17 10° SW 18:11:25 79° SSE 18:14:34 10° ENE
STARLINK-1239 3.7 18:07:41 10° SW 18:11:35 52° SE 18:15:30 10° ENE
SJ-6B 3.4 18:07:50 10° SE 18:11:39 41° ENE 18:15:32 10° N
STARLINK-1126 3.6 18:07:48 10° WNW 18:11:52 77° NNE 18:15:25 13° ESE
STARLINK-1206 2.8 18:08:46 10° SW 18:11:53 80° SSE 18:15:00 10° ENE
Cosmos 2369 Rocket 3.6 18:07:25 10° N 18:11:58 23° NE 18:16:01 12° E
ISS -2.5 18:08:56 10° WNW 18:12:04 35° N 18:15:11 10° ENE
STARLINK-1247 2.8 18:09:13 10° SW 18:12:19 81° SSE 18:15:27 10° ENE
CZ-2C R/B 3.1 18:07:45 10° SSE 18:12:42 57° ENE 18:17:28 10° N
STARLINK-1227 2.8 18:09:38 10° SW 18:12:45 81° SSE 18:15:54 10° ENE
Cosmos 304 Rocket 3.7 18:08:10 10° NNW 18:12:59 80° ENE 18:17:46 10° SSE
STARLINK-1218 2.8 18:10:07 10° WSW 18:13:13 82° SSE 18:16:20 10° ENE
Cosmos 1758 4.4 18:09:55 10° SE 18:13:17 25° E 18:16:41 10° NNE
STARLINK-1226 2.8 18:10:35 10° WSW 18:13:41 83° SSE 18:16:50 10° ENE
STARLINK-1254 2.8 18:10:58 10° WSW 18:14:06 83° SSE 18:17:15 10° ENE
STARLINK-1215 2.8 18:11:28 10° WSW 18:14:35 84° SSE 18:17:43 10° ENE
STARLINK-1231 2.8 18:11:54 10° WSW 18:15:01 85° SSE 18:18:09 10° ENE
Cosmos 1048 Rocket 4.4 18:10:22 10° SSW 18:15:28 70° WNW 18:20:41 10° NNE
STARLINK-1232 2.8 18:12:49 10° WSW 18:15:56 86° SSE 18:19:03 10° ENE
STARLINK-1240 3.6 18:12:14 10° SW 18:16:10 56° SE 18:20:07 10° ENE
STARLINK-1217 2.8 18:13:17 10° WSW 18:16:23 87° SSE 18:19:31 10° ENE
STARLINK-1082 3.5 18:12:21 10° WNW 18:16:24 82° NNE 18:19:48 14° ESE
Meteor 2-8 Rocket 4.4 18:10:27 10° S 18:16:32 68° E 18:22:37 10° NNE
STARLINK-1208 2.8 18:13:41 10° WSW 18:16:49 87° SSE 18:19:58 10° ENE
STARLINK-1229 2.8 18:14:09 10° WSW 18:17:16 88° SSE 18:20:24 10° ENE
Meteor 1-22 Rocket 4.0 18:12:05 10° S 18:17:20 69° E 18:22:37 10° NNE
STARLINK-1271 2.8 18:14:38 10° WSW 18:17:44 89° SSE 18:20:52 10° ENE
Resurs 01 Rocket 3.0 18:15:31 13° ESE 18:18:08 21° ENE 18:21:25 10° NNE
STARLINK-1270 2.8 18:15:05 10° WSW 18:18:11 89° SSE 18:21:19 10° ENE
STARLINK-1154 2.8 18:15:31 10° WSW 18:18:38 90° SSE 18:21:46 10° ENE
STARLINK-1197 2.8 18:16:25 10° WSW 18:19:32 89° NNW 18:22:40 10° ENE
STARLINK-1189 2.8 18:16:53 10° WSW 18:19:59 88° NW 18:23:07 10° ENE
STARLINK-1216 3.6 18:16:50 10° SW 18:20:47 60° SE 18:24:45 10° ENE
STARLINK-1187 3.0 18:17:43 10° WSW 18:20:50 79° NNW 18:24:00 10° ENE
STARLINK-1188 2.8 18:17:46 10° WSW 18:20:53 87° NNW 18:24:01 10° ENE
STARLINK-1100 3.5 18:16:55 10° WNW 18:20:58 86° NNE 18:24:11 16° ESE
STARLINK-1198 2.8 18:18:01 10° WSW 18:21:08 87° NNW 18:24:15 10° ENE
STARLINK-1084 4.5 18:17:11 10° WNW 18:21:08 41° NNE 18:24:30 13° E
STARLINK-1235 3.1 18:18:24 10° WSW 18:21:32 71° NNW 18:24:42 10° ENE
Cosmos 494 Rocket 3.9 18:16:38 10° SSW 18:21:46 81° ESE 18:26:59 10° NNE
Cosmos 1733 3.1 18:18:49 10° S 18:22:35 82° E 18:26:23 10° N
Abrixas rocket 4.1 18:21:21 10° S 18:22:34 13° SE 18:22:34 13° SE
STARLINK-1199 2.9 18:19:42 10° WSW 18:22:50 84° NNW 18:25:59 10° ENE
USA 81 4.2 18:17:33 10° N 18:22:51 81° W 18:28:06 10° S
STARLINK-1191 2.9 18:20:10 10° WSW 18:23:18 84° NNW 18:26:27 10° ENE
CZ-4C R/B 4.4 18:19:10 10° WNW 18:23:39 24° NNW 18:28:49 10° NNE
STARLINK-1210 2.9 18:20:36 10° WSW 18:23:44 83° NNW 18:26:53 10° ENE
STARLINK-1221 2.9 18:21:04 10° WSW 18:24:12 83° NNW 18:27:22 10° ENE
STARLINK-1219 2.9 18:21:31 10° WSW 18:24:39 82° NNW 18:27:47 10° ENE
FREGAT/IRIS 2.2 18:21:59 10° SSE 18:24:42 77° ENE 18:27:25 10° N
STARLINK-1222 2.9 18:21:57 10° WSW 18:25:05 81° NNW 18:28:12 10° ENE
STARLINK-67 3.5 18:22:37 10° W 18:25:06 42° NNW 18:27:36 10° NE
STARLINK-1237 3.5 18:21:27 10° SW 18:25:25 65° SE 18:29:25 10° ENE
SPOT 3 Rocket 3.9 18:20:33 10° SE 18:25:29 45° ENE 18:30:27 10° N
STARLINK-1211 2.9 18:22:25 10° WSW 18:25:33 81° NNW 18:28:38 10° ENE
STARLINK-1083 3.5 18:21:31 10° WNW 18:25:34 89° SW 18:28:36 17° ESE
Cosmos 1709 Rocket 4.0 18:19:36 10° N 18:25:49 66° E 18:31:55 10° SSE
STARLINK-1214 2.9 18:22:52 10° WSW 18:26:00 80° NNW 18:29:05 11° ENE
STARLINK-1098 4.4 18:22:10 10° WNW 18:26:08 42° NNE 18:29:16 15° E
STARLINK-1245 2.9 18:23:21 10° WSW 18:26:29 79° NNW 18:29:30 11° ENE
STARLINK-1238 2.9 18:23:47 10° WSW 18:26:55 79° NNW 18:29:57 11° ENE
Cosmos 1331 Rocket 4.1 18:22:10 10° NNW 18:27:21 79° WSW 18:32:30 10° SSE
STARLINK-1205 2.9 18:24:43 10° WSW 18:27:50 78° NNW 18:30:48 11° ENE
STARLINK-1204 2.9 18:25:09 10° WSW 18:28:16 77° NNW 18:31:13 11° ENE
Cosmos 1674 4.1 18:24:46 10° NNW 18:28:19 40° W 18:31:49 10° SSW
Cosmos 2219 Rocket 4.4 18:24:33 10° WSW 18:29:21 28° NW 18:34:09 10° N
STARLINK-1202 3.5 18:26:02 10° SW 18:30:01 70° SSE 18:33:59 10° ENE
STARLINK-1125 3.5 18:26:07 10° WNW 18:30:11 84° SSW 18:33:02 19° SE
SL-14 R/B 3.2 18:26:11 10° N 18:30:15 74° E 18:34:16 10° SSE
STARLINK-1123 4.4 18:27:10 10° WNW 18:31:09 44° NNE 18:34:05 17° E
Cosmos 1726 4.1 18:32:04 13° ENE 18:32:04 13° ENE 18:33:16 10° NE
MOS 1 Rocket 4.4 18:29:34 10° NNE 18:34:08 30° E 18:38:48 10° SSE
STARLINK-1109 3.6 18:30:25 10° WNW 18:34:28 80° SSW 18:37:10 20° SE
STARLINK-1246 3.5 18:30:58 10° SW 18:35:01 76° SSE 18:38:50 11° ENE
STARLINK-1097 4.3 18:32:08 10° WNW 18:36:08 45° NNE 18:38:50 19° E
MONITOR-E 3.9 18:34:11 10° S 18:36:49 72° W 18:39:28 10° NNW
Cosmos 1943 Rocket 2.7 18:32:43 10° NNW 18:37:55 40° NE 18:41:18 20° ESE
Cosmos 1766 4.5 18:34:30 10° SSW 18:38:21 46° WNW 18:42:13 10° N
STARLINK-1091 3.6 18:35:05 10° WNW 18:39:08 75° SSW 18:41:39 22° SE
STARLINK-1099 4.2 18:37:08 10° WNW 18:41:09 47° NNE 18:43:38 21° E
Ariane Rocket 3.6 18:36:23 10° S 18:41:23 60° WSW 18:46:25 10° NNW
STARLINK-1224 3.4 18:39:56 10° WSW 18:43:58 85° SSE 18:47:24 14° ENE
BREEZE-M DEB (TANK) 4.4 18:34:12 10° WNW 18:44:16 36° SW 18:47:18 12° SSE
Cosmos 1455 Rocket 3.6 18:40:59 10° SSW 18:45:16 62° WNW 18:49:37 10° N
STARLINK-1104 4.2 18:42:07 10° WNW 18:46:10 49° NNE 18:48:25 23° E
STARLINK-1225 3.5 18:44:37 10° WSW 18:48:40 90° NNW 18:51:55 15° ENE
TSX-5 4.2 18:43:17 10° NNW 18:48:50 73° ENE 18:51:27 24° SE
STARLINK-1203 3.5 18:46:39 10° WSW 18:50:36 82° NNW 18:53:42 16° ENE
STARLINK-1144 4.1 18:47:05 10° WNW 18:51:08 51° NNE 18:53:11 26° E
SL-16 R/B 2.1 18:46:11 10° SSW 18:51:51 82° ESE 18:57:32 10° NNE
STARLINK-1072 3.8 18:48:19 10° WNW 18:52:15 60° SW 18:54:14 27° SE
Cosmos 1626 Rocket 3.5 18:48:47 10° N 18:53:13 86° E 18:57:13 12° S
STARLINK-1230 3.5 18:49:15 10° WSW 18:53:18 85° NNW 18:56:22 17° ENE
USA 186 3.1 18:50:37 10° S 18:53:56 44° W 18:57:12 10° NNW
Cosmos 1953 2.8 18:53:53 29° SE 18:55:10 38° E 18:58:51 10° NNE
Cosmos 1626 2.7 18:52:26 10° NNW 18:56:05 56° W 18:59:42 10° S
STARLINK-1103 4.0 18:52:03 10° WNW 18:56:08 53° NNE 18:57:58 29° E
STARLINK-1234 4.0 18:53:50 10° W 18:56:41 40° NNW 18:58:24 20° NE
STARLINK-1096 3.9 18:52:47 10° WNW 18:56:43 56° SW 18:58:31 29° SSE
Cosmos 2084 Rocket 4.1 18:52:42 10° NNW 18:57:01 45° NE 18:58:47 30° E
STARLINK-1243 3.6 18:53:57 10° WSW 18:58:00 80° NNW 19:00:53 18° ENE
Aureole 3 3.6 18:57:25 18° SSE 19:00:16 55° E 19:05:10 10° NNE
Cosmos 1602 Rocket 3.5 18:56:17 10° N 19:00:47 80° E 19:03:54 19° SSE
STARLINK-1101 3.9 18:57:03 10° WNW 19:01:09 56° NNE 19:02:46 33° E
STARLINK-1079 4.0 18:57:16 10° WNW 19:01:10 52° SW 19:02:49 30° SSE
STARLINK-1236 3.6 18:58:37 10° WSW 19:02:40 76° NNW 19:05:22 20° ENE
STARLINK-1116 4.1 19:01:46 10° WNW 19:05:37 48° SW 19:07:08 31° SSE
H-2A R/B 3.1 19:00:41 10° S 19:05:47 45° W 19:10:48 10° NNW
DMSP B5D2-2 4.0 19:00:46 10° NNE 19:05:57 62° ESE 19:11:06 10° S
ATLAS 2AS CENTAUR R/B 3.9 18:58:58 10° NW 19:05:57 34° NNE 19:10:16 19° E
STARLINK-1102 3.9 19:02:01 10° WNW 19:06:08 59° NNE 19:07:32 37° E
Aureole 2 Rocket 3.0 19:07:11 10° N 19:10:31 41° ENE 19:10:31 41° ENE
Terra 3.9 19:10:44 12° ENE 19:10:46 12° NE 19:12:42 10° NNE
STARLINK-1111 3.8 19:06:59 10° WNW 19:11:07 62° NNE 19:12:19 42° E
STARLINK-1269 3.8 19:08:03 10° WSW 19:12:05 67° NNW 19:14:26 24° NE
Cosmos 1603 4.1 19:12:02 30° SE 19:13:40 36° ESE 19:18:46 10° NE
USA 234 3.2 19:07:24 10° NE 19:13:59 84° SE 19:20:33 10° SW
Meteor 1-16 Rocket 4.4 19:12:23 32° SE 19:14:08 43° E 19:19:16 10° NNE
STARLINK-1094 4.4 19:10:47 10° WNW 19:14:34 41° SW 19:15:46 32° S
CZ-2C R/B 3.9 19:10:44 10° NNE 19:15:32 78° WNW 19:20:13 10° SSW
Cosmos 2297 4.5 19:10:36 10° NW 19:16:03 50° WSW 19:20:56 13° S
STARLINK-1073 3.7 19:11:58 10° WNW 19:16:07 66° NNE 19:17:06 47° E
STARLINK-1200 3.9 19:12:46 10° WSW 19:16:48 64° NNW 19:18:56 26° NE
Cosmos 1703 4.3 19:14:44 10° N 19:17:47 31° ENE 19:17:47 31° ENE
STARLINK-1117 4.5 19:15:19 10° WNW 19:19:04 38° SW 19:20:06 32° S
Cosmos 1825 Rocket 3.7 19:15:51 10° N 19:20:11 50° ENE 19:20:41 48° E
STARLINK-1121 3.7 19:16:58 10° WNW 19:21:06 70° NNE 19:21:53 54° E
STARLINK-1192 4.0 19:17:26 10° WSW 19:21:27 61° NNW 19:23:24 28° NE
MetOp-B 4.3 19:19:53 38° ESE 19:21:34 53° ENE 19:26:47 10° N
Cosmos 2237 Rocket 4.3 19:17:51 10° WSW 19:22:38 28° NW 19:27:27 10° N
STARLINK-1106 3.6 19:21:55 10° WNW 19:26:05 74° NNE 19:26:39 61° E
STARLINK-1244 4.1 19:22:15 10° WSW 19:26:15 58° NNW 19:28:01 30° NE
STARLINK-1201 4.3 19:23:38 10° W 19:26:42 37° NNW 19:27:31 31° NNE
CZ-2C R/B 2.4 19:22:23 10° NNE 19:27:36 80° ESE 19:32:38 11° S
Cosmos 2184 Rocket 3.9 19:22:38 10° N 19:29:00 77° E 19:32:13 31° SSE
Cosmos 1992 Rocket 3.9 19:23:46 10° NNW 19:29:01 77° ENE 19:30:33 46° SE
Cosmos 1758 Rocket 3.4 19:25:05 10° N 19:29:28 75° E 19:30:09 60° SE
STARLINK-1138 4.1 19:26:59 10° W 19:30:58 55° NNW 19:32:32 33° NE
STARLINK-1112 3.5 19:26:55 10° WNW 19:31:05 78° NNE 19:31:27 70° E
STARLINK-1143 4.2 19:31:47 10° W 19:35:45 52° NNW 19:37:08 35° NE
Cosmos 1953 Rocket 3.9 19:31:26 10° N 19:35:31 49° ENE 19:35:31 49° ENE
Cosmos 2251 Rocket 3.4 19:30:42 10° SSW 19:36:02 74° ESE 19:41:25 10° NNE
STARLINK-1128 3.4 19:31:55 10° WNW 19:36:05 83° NNE 19:36:15 80° E
SL-8 R/B 3.6 19:32:23 10° WNW 19:37:11 80° N 19:38:02 59° E
Cosmos 1656 Rocket 4.1 19:34:57 10° NNW 19:40:24 45° NE 19:41:14 43° E
STARLINK-1113 3.5 19:36:53 10° WNW 19:41:02 88° N 19:41:02 88° N
Cosmos 1606 Rocket 3.7 19:43:15 58° NE 19:43:15 58° NE 19:47:05 10° NNE
STARLINK-1119 3.6 19:41:51 10° WNW 19:45:48 80° W 19:45:48 80° W
STARLINK-1241 4.4 19:42:20 10° W 19:46:14 47° NNW 19:47:06 40° NNE
ERS-1 Rocket 3.6 19:48:48 40° ENE 19:48:48 40° ENE 19:53:12 10° N
ISS -2.5 19:45:50 10° WNW 19:48:11 41° NW 19:48:11 41° NW
Cosmos 2154 Rocket 3.9 19:43:32 10° N 19:49:55 72° E 19:51:32 51° SE
USA 245 3.8 19:50:07 68° ESE 19:50:36 73° ENE 19:56:20 10° N
STARLINK-1239 4.4 19:46:58 10° W 19:50:50 46° NNW 19:51:30 41° NNE
STARLINK-1114 3.8 19:46:52 10° WNW 19:50:36 70° W 19:50:36 70° W
BREEZE-M DEB (TANK) 3.8 19:48:45 10° WNW 19:53:10 57° WNW 19:53:10 57° WNW
Resurs 01 Rocket 2.4 19:53:04 36° SW 19:54:20 47° W 19:58:36 10° NNW
BREEZE M DEB (TANK) 4.1 19:46:12 10° SW 19:53:49 45° S 19:53:49 45° S
SPOT 5 3.9 19:56:05 29° NE 19:56:05 29° NE 19:58:53 10° N
STARLINK-1240 4.5 19:51:36 10° W 19:55:28 44° NNW 19:55:56 42° N
STARLINK-1130 (DARKSAT) 4.0 19:51:49 10° WNW 19:55:22 62° W 19:55:22 62° W
Cosmos 2369 Rocket 2.3 19:50:53 10° NNW 19:56:36 73° WSW 19:57:50 54° S
Cosmos 2263 4.0 19:54:41 10° NNW 20:00:21 89° ENE 20:00:59 71° SSE
STARLINK-1084 4.2 19:56:48 10° WNW 20:00:09 54° W 20:00:09 54° W
Cosmos 967 Rocket 4.4 19:54:35 10° SSW 20:00:58 70° ESE 20:07:27 10° NE
STARLINK-1098 4.4 20:01:47 10° WNW 20:04:55 47° W 20:04:55 47° W
Cosmos 962 Rocket 4.4 19:59:52 10° N 20:06:01 60° ENE 20:06:15 60° E
Cosmos 1726 3.3 20:06:29 42° NW 20:06:29 42° NW 20:09:40 10° N
Landsat 7 3.8 20:06:34 72° NNE 20:06:34 72° NNE 20:10:55 10° NNW
Nadezhda 1 Rocket 4.0 20:06:17 41° S 20:08:46 87° W 20:15:12 10° N
Cosmos 2228 3.6 20:11:02 53° NNW 20:11:02 53° NNW 20:14:30 10° N
SL-8 Rocket 4.4 20:06:13 10° N 20:11:56 46° ENE 20:11:56 46° ENE
Cosmos 1943 3.1 20:19:28 85° NNE 20:19:28 85° NNE 20:25:02 10° NNE
Cosmos 1943 Rocket 3.3 20:16:36 10° NW 20:21:36 36° WSW 20:22:52 32° SW
Cosmos 2058 Rocket 4.4 20:24:09 33° N 20:24:09 33° N 20:26:43 10° N
NOSS 3-4 (A) 3.9 20:18:06 10° NW 20:24:58 64° NE 20:25:57 58° E
NOSS 3-4 (C) 3.9 20:18:12 10° NW 20:25:04 63° NE 20:26:03 58° E
SPOT 1/Viking Rocket 3.8 20:32:06 66° WNW 20:32:06 66° WNW 20:36:53 10° NNW
Spot 2 Rocket 4.3 20:33:06 44° WSW 20:33:22 44° W 20:38:16 10° NNW
NOSS 3-3 (A) 4.1 20:28:09 10° SW 20:34:02 73° NW 20:40:46 10° NE
NOSS 3-3 (C) 4.0 20:28:15 10° SW 20:34:09 74° NW 20:40:52 10° NE
Terra 3.1 20:49:36 38° N 20:49:36 38° N 20:52:32 10° NNW
Cosmos 2341 Rocket 4.2 20:47:37 10° NNW 20:53:51 69° W 20:53:51 69° W
USA 234 4.1 20:50:33 10° NE 20:56:43 46° NNW 21:02:53 10° W
ATLAS 2AS CENTAUR R/B 2.7 20:50:10 10° NW 20:57:41 85° W 20:57:41 85° W
Aureole 1 Rocket 4.5 21:07:15 59° WSW 21:08:33 69° WNW 21:15:10 10° NNE
COSMOS 2455 3.5 21:06:34 10° NNW 21:11:09 52° N 21:11:09 52° N
CZ-4C R/B 4.1 21:59:17 10° NNW 22:05:19 33° NNE 22:06:33 31° NE
Mayak 1.9 22:06:33 10° N 22:06:55 12° N 22:06:55 12° N
Cosmos 1697 Rocket 4.5 22:23:23 10° NNW 22:26:03 28° N 22:26:03 28° N
USA 234 4.5 22:33:03 10° ENE 22:38:55 37° N 22:44:47 10° WNW
Cosmos 2322 Rocket 4.5 22:40:57 10° N 22:44:32 17° NE 22:44:38 17° NE
Cosmos 1980 Rocket 4.1 22:48:28 10° NNW 22:50:54 25° N 22:50:54 25° N
Cosmos 2082 Rocket 4.3 23:15:19 22° NE 23:15:19 22° NE 23:17:12 10° NNE
SL-16 R/B 4.1 23:21:37 29° NE 23:21:37 29° NE 23:26:19 10° N
ATLAS 5 CENTAUR R/B 4.4 23:39:11 17° N 23:39:11 17° N 23:41:12 10° NNE
Cosmos 1833 Rocket 4.5 23:45:09 28° N 23:45:09 28° N 23:47:55 10° NNE
